EW6430 Weather Reports


time (UTC)temp
C
wind
direction
speed
KPH
gust
KPH
rain 1hr
cm
rain 24hr
cm
rain mn
cm
humidity
%
barometer
mb
20260504021548 6 189 0.0 0.0 0.00 0.00 0.00 84 1014.1
20260504021033 6 189 0.0 0.0 0.00 0.00 0.00 84 1014.1
20260504020523 6 189 0.0 0.0 0.00 0.00 0.00 83 1014.0
20260504020049 6 189 0.0 0.0 0.00 0.00 0.00 83 1013.9
20260504014931 6 189 0.0 0.0 0.00 0.00 0.00 82 1014.0
20260504014600 6 189 0.0 0.0 0.00 0.00 0.00 82 1013.9
20260504014422 6 189 0.0 0.0 0.00 0.00 0.00 82 1014.0
20260504013905 6 189 0.0 0.0 0.00 0.00 0.00 81 1014.0
20260504013351 6 189 0.0 0.0 0.00 0.00 0.00 81 1014.0
20260504013017 6 189 0.0 0.0 0.00 0.00 0.00 81 1013.9
20260504012835 6 189 0.0 0.0 0.00 0.00 0.00 81 1014.0
20260504012324 6 189 0.0 0.0 0.00 0.00 0.00 81 1014.0
20260504011821 7 189 0.0 0.0 0.00 0.00 0.00 80 1014.0
20260504011537 6 189 0.0 0.0 0.00 0.00 0.00 80 1013.9
20260504011253 7 189 0.0 0.0 0.00 0.00 0.00 79 1014.0
20260504010738 7 189 0.0 0.0 0.00 0.00 0.00 78 1014.0
20260504010244 7 189 0.0 0.0 0.00 0.00 0.00 78 1014.0
20260504010003 7 189 0.0 0.0 0.00 0.00 0.00 78 1013.9
20260504005719 7 189 0.0 0.0 0.00 0.00 0.00 78 1014.0
20260504005205 8 189 0.0 0.0 0.00 0.00 0.00 77 1014.1
20260504004651 8 189 0.0 0.0 0.00 0.00 0.00 76 1014.0
20260504004527 8 189 0.0 0.0 0.00 0.00 0.00 76 1013.9
20260504004135 8 189 0.0 0.0 0.00 0.00 0.00 76 1014.0
20260504003622 8 189 0.0 0.0 0.00 0.00 0.00 76 1014.0
20260504003105 8 189 0.0 3.2 0.00 0.00 0.00 77 1014.0
20260504003041 8 189 0.0 3.2 0.00 0.00 0.00 77 1013.9
20260504002552 8 189 0.0 3.2 0.00 0.00 0.00 76 1014.1
20260504002036 8 208 0.0 0.0 0.00 0.00 0.00 75 1014.1
20260504001613 7 208 0.0 0.0 0.00 0.00 0.00 75 1013.9
20260504001526 8 208 0.0 0.0 0.00 0.00 0.00 75 1014.2
20260504001008 8 208 0.0 0.0 0.00 0.00 0.00 74 1014.2
20260504000123 8 208 0.0 0.0 0.00 0.00 0.00 72 1014.1
20260503235425 8 208 0.0 0.0 0.00 0.00 0.00 71 1014.1
20260503234643 8 208 0.0 0.0 0.00 0.00 0.00 70 1014.1
20260503234401 9 208 0.0 0.0 0.00 0.00 0.00 69 1014.2
20260503233845 9 208 0.0 0.0 0.00 0.00 0.00 69 1014.2
20260503233333 9 208 0.0 0.0 0.00 0.00 0.00 69 1014.3
20260503233100 9 208 0.0 0.0 0.00 0.00 0.00 68 1014.2
20260503232817 9 208 0.0 0.0 0.00 0.00 0.00 68 1014.2
20260503232307 10 208 0.0 0.0 0.00 0.00 0.00 67 1014.3
20260503231754 10 208 0.0 0.0 0.00 0.00 0.00 66 1014.3
20260503231524 10 208 0.0 0.0 0.00 0.00 0.00 65 1014.2
20260503231239 10 208 0.0 0.0 0.00 0.00 0.00 64 1014.4
20260503230726 11 208 0.0 0.0 0.00 0.00 0.00 63 1014.4
20260503230211 11 208 0.0 0.0 0.00 0.00 0.00 61 1014.4
20260503230042 11 208 0.0 0.0 0.00 0.00 0.00 61 1014.3
20260503225656 11 208 0.0 0.0 0.00 0.00 0.00 60 1014.4
20260503225144 12 208 0.0 0.0 0.00 0.00 0.00 59 1014.4
20260503224643 12 208 0.0 0.0 0.00 0.00 0.00 58 1014.4
20260503224517 12 208 0.0 0.0 0.00 0.00 0.00 58 1014.3
20260503224130 13 208 0.0 0.0 0.00 0.00 0.00 57 1014.4
20260503223626 13 208 0.0 1.6 0.00 0.00 0.00 55 1014.4
20260503223122 13 208 0.0 1.6 0.00 0.00 0.00 54 1014.4
20260503222619 14 209 0.0 3.2 0.00 0.00 0.00 52 1014.4
20260503222113 14 209 0.0 3.2 0.00 0.00 0.00 51 1014.4
20260503221602 15 209 0.0 1.6 0.00 0.00 0.00 50 1014.5
20260503221544 14 209 0.0 1.6 0.00 0.00 0.00 50 1014.3
20260503220100 15 209 0.0 3.2 0.00 0.00 0.00 48 1014.6
20260503220031 15 209 0.0 3.2 0.00 0.00 0.00 48 1014.5
20260503215543 15 209 0.0 3.2 0.00 0.00 0.00 47 1014.6
20260503214551 16 209 0.0 3.2 0.00 0.00 0.00 46 1014.5
20260503214513 16 209 1.6 3.2 0.00 0.00 0.00 46 1014.6
20260503213959 16 209 1.6 9.7 0.00 0.00 0.00 45 1014.7
20260503213443 16 223 1.6 6.4 0.00 0.00 0.00 45 1014.7
20260503213018 16 221 1.6 6.4 0.00 0.00 0.00 45 1014.5
20260503212933 16 219 3.2 9.7 0.00 0.00 0.00 44 1014.7
20260503212432 16 221 3.2 9.7 0.00 0.00 0.00 44 1014.7
20260503211919 17 235 3.2 11.3 0.00 0.00 0.00 44 1014.7
20260503211544 16 254 1.6 9.7 0.00 0.00 0.00 43 1014.6
20260503211405 17 230 4.8 11.3 0.00 0.00 0.00 43 1014.7
20260503210848 17 223 3.2 11.3 0.00 0.00 0.00 43 1014.8
20260503210104 17 196 3.2 11.3 0.00 0.00 0.00 42 1014.7
20260503205813 17 212 6.4 16.1 0.00 0.00 0.00 42 1014.8
20260503205259 17 223 6.4 16.1 0.00 0.00 0.00 42 1014.8
20260503204738 17 215 6.4 14.5 0.00 0.00 0.00 42 1014.8
20260503204506 17 238 6.4 14.5 0.00 0.00 0.00 42 1014.7
20260503204222 17 200 6.4 14.5 0.00 0.00 0.00 42 1014.8
20260503203713 17 206 6.4 12.9 0.00 0.00 0.00 42 1014.8
20260503203202 17 161 6.4 12.9 0.00 0.00 0.00 41 1014.7
20260503203034 17 204 1.6 12.9 0.00 0.00 0.00 41 1014.6
20260503202647 17 203 6.4 12.9 0.00 0.00 0.00 41 1014.7
20260503202134 17 143 6.4 14.5 0.00 0.00 0.00 42 1014.7
20260503201628 17 232 6.4 14.5 0.00 0.00 0.00 42 1014.7
20260503201502 17 200 4.8 11.3 0.00 0.00 0.00 42 1014.6
20260503201115 17 198 6.4 14.5 0.00 0.00 0.00 42 1014.7
20260503200612 17 218 4.8 14.5 0.00 0.00 0.00 42 1014.7
20260503200046 17 224 3.2 9.7 0.00 0.00 0.00 43 1014.6
20260503195601 17 202 3.2 9.7 0.00 0.00 0.00 43 1014.7
20260503194550 17 228 3.2 8.0 0.00 0.00 0.00 45 1014.7
20260503194525 17 209 0.0 8.0 0.00 0.00 0.00 45 1014.6
20260503193028 17 228 1.6 4.8 0.00 0.00 0.00 48 1014.8
20260503193002 17 228 0.0 4.8 0.00 0.00 0.00 48 1014.7
20260503192524 17 229 1.6 4.8 0.00 0.00 0.00 49 1014.7
20260503192014 17 225 0.0 4.8 0.00 0.00 0.00 50 1014.7
20260503191645 17 228 0.0 1.6 0.00 0.00 0.00 50 1014.6
20260503191006 18 228 0.0 0.0 0.00 0.00 0.00 49 1014.7
20260503190029 18 228 0.0 1.6 0.00 0.00 0.00 47 1014.5
20260503184956 19 228 1.6 4.8 0.00 0.00 0.00 46 1014.5
20260503184601 18 227 0.0 4.8 0.00 0.00 0.00 45 1014.3
20260503184452 19 227 1.6 4.8 0.00 0.00 0.00 45 1014.4
20260503183951 19 227 1.6 4.8 0.00 0.00 0.00 45 1014.4
20260503183506 19 225 1.6 3.2 0.00 0.00 0.00 45 1014.3
20260503183020 19 226 0.0 4.8 0.00 0.00 0.00 44 1014.1
20260503182942 20 223 1.6 8.0 0.00 0.00 0.00 44 1014.3
20260503182427 20 223 1.6 6.4 0.00 0.00 0.00 44 1014.2
20260503181920 20 211 1.6 8.0 0.00 0.00 0.00 43 1014.1
20260503181550 20 238 3.2 8.0 0.00 0.00 0.00 43 1014.0
20260503181421 20 229 1.6 6.4 0.00 0.00 0.00 43 1014.1
20260503180901 20 244 1.6 4.8 0.00 0.00 0.00 43 1014.1
20260503180354 21 245 1.6 6.4 0.00 0.00 0.00 42 1014.1
20260503180025 21 247 1.6 6.4 0.00 0.00 0.00 42 1013.9
20260503175842 21 242 0.0 3.2 0.00 0.00 0.00 41 1014.1
20260503175336 21 242 1.6 9.7 0.00 0.00 0.00 41 1014.1
20260503174543 21 246 0.0 9.7 0.00 0.00 0.00 40 1013.9
20260503174259 21 237 4.8 12.9 0.00 0.00 0.00 40 1014.0
20260503173743 22 234 3.2 12.9 0.00 0.00 0.00 39 1013.9
20260503173231 22 251 3.2 14.5 0.00 0.00 0.00 39 1014.0
20260503173121 22 235 1.6 14.5 0.00 0.00 0.00 38 1013.8
20260503172718 22 225 4.8 14.5 0.00 0.00 0.00 38 1014.0
20260503172207 22 229 3.2 12.9 0.00 0.00 0.00 38 1014.0
20260503171656 22 252 4.8 12.9 0.00 0.00 0.00 37 1014.0
20260503171527 22 268 0.0 12.9 0.00 0.00 0.00 37 1013.8
20260503171141 22 242 6.4 12.9 0.00 0.00 0.00 36 1013.9
20260503170630 22 257 8.0 16.1 0.00 0.00 0.00 36 1013.9
20260503170117 22 247 6.4 20.9 0.00 0.00 0.00 35 1013.9
20260503150621 24 265 9.7 24.1 0.00 0.00 0.00 35 1014.4
20260503150114 24 250 8.0 24.1 0.00 0.00 0.00 34 1014.4
20260503130525 23 227 8.0 24.1 0.00 0.00 0.00 36 1015.8
20260503120128 23 235 9.7 19.3 0.00 0.00 0.00 36 1016.2
20260503110639 23 240 8.0 20.9 0.00 0.00 0.00 39 1016.7
20260503110134 22 249 8.0 17.7 0.00 0.00 0.00 39 1016.9
20260503090231 20 209 11.3 29.0 0.00 0.00 0.00 45 1018.0
20260503090105 20 153 9.7 29.0 0.00 0.00 0.00 46 1018.0
20260503081528 19 231 8.0 17.7 0.00 0.00 0.00 48 1018.1
20260503081504 19 222 8.0 17.7 0.00 0.00 0.00 48 1018.2
20260503081017 19 197 9.7 19.3 0.00 0.00 0.00 49 1018.2
20260503080501 19 227 6.4 19.3 0.00 0.00 0.00 48 1018.1
20260503072817 17 173 4.8 11.3 0.00 0.00 0.00 52 1018.0
20260503072305 17 178 6.4 14.5 0.00 0.00 0.00 53 1018.0
20260503071803 17 154 6.4 14.5 0.00 0.00 0.00 52 1018.0
20260503071534 17 156 4.8 12.9 0.00 0.00 0.00 52 1018.1
20260503070735 17 250 6.4 14.5 0.00 0.00 0.00 53 1018.0
20260503070218 17 250 6.4 14.5 0.00 0.00 0.00 53 1018.0
20260503070154 17 246 4.8 14.5 0.00 0.00 0.00 53 1018.1
20260503054928 14 152 1.6 8.0 0.00 0.00 0.00 62 1017.9
20260503054553 13 122 0.0 4.8 0.00 0.00 0.00 62 1017.9
20260503053901 14 94 0.0 4.8 0.00 0.00 0.00 63 1018.0
20260503053349 13 93 0.0 3.2 0.00 0.00 0.00 65 1018.0
20260503053014 13 92 0.0 1.6 0.00 0.00 0.00 67 1018.1
20260503052832 13 92 0.0 1.6 0.00 0.00 0.00 67 1017.9
20260503052321 12 92 0.0 1.6 0.00 0.00 0.00 69 1018.0
20260503051538 11 92 0.0 1.6 0.00 0.00 0.00 72 1018.1
20260503051257 11 92 0.0 1.6 0.00 0.00 0.00 73 1018.0
20260503050237 10 92 0.0 1.6 0.00 0.00 0.00 77 1018.0
20260503050006 10 92 0.0 1.6 0.00 0.00 0.00 78 1018.1
20260503045722 10 93 0.0 3.2 0.00 0.00 0.00 79 1017.9
20260503045215 10 92 0.0 3.2 0.00 0.00 0.00 82 1017.9
20260503044703 9 93 0.0 1.6 0.00 0.00 0.00 85 1017.9
20260503044535 8 93 0.0 0.0 0.00 0.00 0.00 86 1018.0
20260503043640 7 93 0.0 1.6 0.00 0.00 0.00 90 1017.9
20260503043137 6 93 0.0 1.6 0.00 0.00 0.00 91 1017.9
20260503043010 6 93 0.0 1.6 0.00 0.00 0.00 91 1018.1
20260503042631 6 93 0.0 1.6 0.00 0.00 0.00 91 1017.9
20260503042118 5 93 0.0 0.0 0.00 0.00 0.00 91 1017.8
20260503041603 5 93 0.0 0.0 0.00 0.00 0.00 91 1017.9
20260503041105 5 93 0.0 0.0 0.00 0.00 0.00 91 1017.8
20260503040555 4 93 0.0 0.0 0.00 0.00 0.00 91 1017.8
20260503040120 4 93 0.0 0.0 0.00 0.00 0.00 90 1017.9
20260503034611 3 93 0.0 0.0 0.00 0.00 0.00 89 1018.0
20260503034520 4 93 0.0 0.0 0.00 0.00 0.00 89 1017.9
20260503034010 4 92 0.0 1.6 0.00 0.00 0.00 89 1017.8
20260503033132 4 92 0.0 0.0 0.00 0.00 0.00 88 1017.8
20260503032952 4 92 0.0 0.0 0.00 0.00 0.00 88 1017.8
20260503031513 5 92 0.0 0.0 0.00 0.00 0.00 88 1017.7
20260503031433 5 92 0.0 0.0 0.00 0.00 0.00 88 1017.7
20260503030941 5 92 0.0 0.0 0.00 0.00 0.00 88 1017.6
20260503030422 5 92 0.0 0.0 0.00 0.00 0.00 87 1017.6
20260503030002 5 92 0.0 0.0 0.00 0.00 0.00 88 1017.7
20260503025921 5 92 0.0 0.0 0.00 0.00 0.00 88 1017.6
20260503025416 5 92 0.0 0.0 0.00 0.00 0.00 88 1017.6
20260503024911 5 92 0.0 1.6 0.00 0.00 0.00 89 1017.6
20260503024554 5 92 0.0 1.6 0.00 0.00 0.00 89 1017.6
20260503024412 5 92 0.0 1.6 0.00 0.00 0.00 89 1017.6
20260503023913 5 92 0.0 1.6 0.00 0.00 0.00 89 1017.6
20260503023404 5 92 0.0 1.6 0.00 0.00 0.00 89 1017.5
20260503023138 5 93 0.0 0.0 0.00 0.00 0.00 89 1017.7
20260503022344 5 93 0.0 1.6 0.00 0.00 0.00 88 1017.7